SCP
0 0 0 0 0 0 0 0 0 0 0 0 0 0 0 0 0 0 0 0 0 0 0 0 0 0 0 0 0 0 0 0 0 0 0 0 0 0 0 0 0 0 0 0
0 0 0 0 0 0 0 0 0 0 0 0 0 0 0 0 0 0 0 0 0 0 0 0 0 0 0 0 0 0 0 0 0 0 0 0 0 0 0 0 0 0 0 0
0 0 0 0 0 0 0 0 0 0 0 0 0 0 0 0 0 0 0 0 0 0 0 0 0 0 0 0 0 0 0 0 0 0 0 0 0 0 0 0 0 0 0 0
0 0 0 0 0 0 0 0 0 0 0 0 0 0 0 0 0 0 0 0 0 0 0 0 0 0 0 0 0 0 0 0 0 0 0 0 0 0 0 0 0 0 0 0
0 0 0 0 0 0 0 0 0 0 0 0 0 0 0 0 0 0 0 0 0 0 0 0 0 0 0 0 0 0 0 0 0 0 0 0 0 0 0 0 0 0 0 0
0 0 0 0 0 0 0 0 0 0 0 0 0 0 0 0 0 0 0 0 0 0 0 0 0 0 0 0 0 0 0 0 0 0 0 0 0 0 0 0 0 0 0 0
0 0 0 0 0 0 0 0 0 0 0 0 0 0 0 0 0 0 0 0 0 0 0 0 0 0 0 0 0 0 0 0 0 0 0 0 0 0 0 0 0 0 0 0
0 0 0 0 0 0 0 0 0 0 0 0 0 0 0 0 0 0 0 0 0 0 0 0 0 0 0 0 0 0 0 0 0 0 0 0 0 0 0 0 0 0 0 0
0 0 0 0 0 0 0 0 0 0 0 0 0 0 0 0 0 0 0 0 0 0 0 0 0 0 0 0 0 0 0 0 0 0 0 0 0 0 0 0 0 0 0 0
0 0 0 0 0 0 0 0 0 0 0 0 0 0 0 0 0 0 0 0 0 0 0 0 0 0 0 0 0 0 0 0 0 0 0 0 0 0 0 0 0 0 0 0
0 0 0 0 0 0 0 0 0 0 0 0 0 0 0 0 0 0 0 0 0 0 0 0 0 0 0 0 0 0 0 0 0 0 0 0 0 0 0 0 0 0 0 0
0 0 0 0 0 0 0 0 0 0 0 0 0 0 0 0 0 0 0 0 0 0 0 0 0 0 0 0 0 0 0 0 0 0 0 0 0 0 0 0 0 0 0 0
0 0 0 0 0 0 0 0 0 0 0 0 0 0 0 0 0 0 0 0 0 0 0 0 0 0 0 0 0 0 0 0 0 0 0 0 0 0 0 0 0 0 0 0
0 0 0 0 0 0 0 0 0 0 0 0 0 0 0 0 0 0 0 0 0 0 0 0 0 0 0 0 0 0 0 0 0 0 0 0 0 0 0 0 0 0 0 0
0 0 0 0 0 0 0 0 0 0 0 0 0 0 0 0 0 0 0 0 0 0 0 0 0 0 0 0 0 0 0 0 0 0 0 0 0 0 0 0 0 0 0 0
0 0 0 0 0 0 0 0 0 0 0 0 0 0 0 0 0 0 0 0 0 0 0 0 0 0 0 0 0 0 0 0 0 0 0 0 0 0 0 0 0 0 0 0
0 0 0 0 0 0 0 0 0 0 0 0 0 0 0 0 0 0 0 0 0 0 0 0 0 0 0 0 0 0 0 0 0 0 0 0 0 0 0 0 0 0 0 0
0 0 0 0 0 0 0 0 0 0 0 0 0 0 0 0 0 0 0 0 0 0 0 0 0 0 0 0 0 0 0 0 0 0 0 0 0 0 0 0 0 0 0 0
0 0 0 0 0 0 0 0 0 0 0 0 0 0 0 0 0 0 0 0 0 0 0 0 0 0 0 0 0 0 0 0 0 0 0 0 0 0 0 0 0 0 0 0
0 0 0 0 0 0 0 0 0 0 0 0 0 0 0 0 0 0 0 0 0 0 0 0 0 0 0 0 0 -0 0 0 0 0 0 0 0 0 0 0 0 0 0 0
0 0 0 0 0 0 0 0 0 0 0 0 0 0 0 0 0 0 0 0 0 0 0 0 0 0 0 0 0 0 0 0 0 0 0 0 0 0 0 0 0 0 0 0
0 0 0 0 0 0 0 0 0 0 0 0 0 0 0 0 0 0 0 0 0 0 0 0 0 0 0 0 0 0 0 0 0 0 0 0 0 0 0 0 0 0 0 0
0 0 0 0 0 0 0 0 0 0 0 0 0 0 0 0 0 0 0 0 0 0 0 0 0 0 0 0 0 0 0 0 0 0 0 0 0 0 0 0 0 0 0 0
0 0 0 0 0 0 0 0 0 0 0 0 0 0 0 0 0 0 0 0 0 0 0 0 0 0 0 0 0 0 0 0 0 0 0 0 0 0 0 0 0 0 0 0
0 0 0 0 0 0 0 0 0 0 0 0 0 0 0 0 0 0 0 0 0 0 0 0 0 0 0 0 0 0 0 0 0 0 0 0 0 0 0 0 0 0 0 0
0 0 0 0 0 0 0 0 0 0 0 0 0 0 0 0 0 0 0 0 0 0 0 0 0 0 0 0 0 0 0 0 0 0 0 0 0 0 0 0 0 0 0 0
0 0 0 0 0 0 0 0 0 0 0 0 0 0 0 0 0 0 0 0 0 0 0 0 0 0 0 0 0 0 0 0 0 0 0 0 0 0 0 0 0 0 0 0
Wind_Speed
1 1 3 4 5 5 7 7 6 5 3 0 4 4 4 4 4 3 3 2 3 4 4 3 2 1 2 2 3 4 4 5 5 5 5 5 6 6 6 8 9 8 8 8
6 7 6 9 9 9 8 8 8 6 5 2 5 5 5 5 5 4 3 2 3 4 4 4 2 1 2 2 2 3 4 4 5 5 5 5 5 6 6 6 7 7 7 7
6 6 6 9 7 10 8 6 6 6 2 7 5 5 4 3 3 3 2 2 2 4 4 4 3 2 3 2 1 2 4 4 4 5 5 5 6 5 6 5 5 6 6 6
7 5 6 5 5 1 5 7 6 5 1 5 4 4 3 3 3 3 2 1 3 4 5 4 4 3 1 2 2 3 4 4 4 4 5 5 5 5 6 5 4 4 4 5
4 6 7 6 4 2 3 7 9 10 7 7 6 5 7 8 6 4 1 1 2 3 5 4 5 5 3 3 3 4 4 4 5 5 5 5 6 5 5 4 4 3 3 4
5 5 3 7 8 4 2 5 5 9 10 9 8 5 6 9 7 5 2 0 2 4 4 4 4 5 4 3 5 5 4 4 4 4 4 5 5 5 4 4 4 3 3 3
6 6 3 8 7 4 2 3 3 4 8 10 9 4 4 9 8 5 4 2 1 3 2 2 3 5 4 5 6 5 4 4 4 4 3 4 4 4 3 3 3 3 3 2
5 5 0 8 6 4 2 2 1 2 5 8 8 6 7 7 6 6 5 4 2 3 2 0 0 4 3 5 4 4 3 2 2 3 4 4 2 2 3 4 4 4 4 3
2 2 5 7 7 5 3 5 3 3 4 6 7 8 8 7 6 5 5 5 4 2 2 3 1 2 3 3 2 3 3 2 1 2 2 1 3 3 3 4 4 4 4 4
4 6 5 7 9 7 5 5 5 2 4 6 7 7 8 7 7 6 5 5 4 4 5 2 3 2 0 1 1 2 2 2 2 1 1 2 2 3 3 4 4 4 5 4
6 8 8 5 7 8 7 7 6 4 5 6 7 7 8 7 7 6 5 5 4 4 3 2 2 3 3 2 2 2 3 3 2 2 1 1 3 2 3 3 2 2 3 4
5 5 5 5 1 4 6 8 7 6 6 6 7 7 8 7 7 7 6 5 5 6 5 5 4 2 3 3 3 4 3 2 2 2 2 1 2 3 1 1 3 2 1 2
6 7 5 6 5 2 5 7 8 8 8 7 8 7 8 7 6 7 7 6 6 6 5 4 2 2 3 4 3 4 3 2 2 1 2 1 1 2 3 2 3 3 3 2
4 5 7 6 6 5 5 6 7 8 9 8 8 8 7 7 7 8 8 7 6 5 5 4 4 3 3 4 4 4 3 2 2 2 2 2 1 1 1 2 3 3 4 5
14 10 7 6 8 7 4 4 6 8 9 9 8 8 9 8 8 8 8 7 7 6 6 5 5 4 3 3 3 4 4 3 4 3 3 3 2 2 2 2 2 3 4 3
17 15 12 9 9 10 7 6 7 8 9 9 9 9 10 9 8 7 7 7 7 7 7 6 6 5 5 5 4 3 2 2 2 2 3 3 4 3 3 3 2 2 3 3
15 15 16 16 15 14 12 9 9 9 9 10 10 9 9 9 9 9 8 8 8 7 7 7 6 5 5 6 5 4 4 5 7 3 3 4 3 3 3 3 2 2 3 4
12 13 13 14 15 16 16 15 12 11 10 10 9 10 11 11 11 10 9 8 8 8 8 7 7 6 6 6 5 4 4 4 5 5 5 4 3 3 3 3 3 3 4 4
14 14 15 15 15 15 15 15 15 14 12 10 10 11 11 12 11 10 10 10 10 10 9 8 10 8 7 8 6 4 4 4 4 5 5 5 4 3 3 3 3 4 4 6
13 14 14 15 16 15 15 15 16 15 13 11 10 10 11 11 11 10 11 11 10 8 8 9 10 8 7 7 9 5 5 5 5 4 3 4 4 5 5 4 4 4 4 4
13 14 15 15 16 16 16 16 15 14 13 12 10 9 9 9 10 10 10 10 9 9 10 12 9 7 7 7 10 6 5 5 5 4 4 4 4 4 5 5 5 5 4 4
13 13 15 15 16 15 16 16 16 16 15 13 11 9 7 7 9 9 10 8 7 11 9 7 7 9 11 10 7 6 6 5 5 4 4 4 4 4 4 4 4 4 4 4
12 13 14 14 15 15 16 16 17 16 16 15 13 10 7 6 5 6 7 6 6 11 10 7 10 14 15 10 7 7 7 7 6 5 5 5 4 4 4 4 4 3 3 4
12 13 13 13 14 14 14 15 16 14 16 15 14 13 10 6 5 5 5 7 12 13 9 10 16 17 16 8 7 7 7 7 6 5 5 5 5 4 4 4 4 3 3 4
11 11 12 13 12 10 12 13 14 14 14 13 16 16 12 9 7 6 4 4 9 12 8 10 16 17 13 8 8 7 6 6 6 6 6 5 4 4 4 3 3 3 3 3
9 8 7 8 8 8 8 9 9 10 11 12 12 13 13 11 11 9 7 5 2 7 6 5 8 11 9 8 8 8 7 7 7 6 5 5 5 5 4 4 5 4 3 3
9 7 5 5 5 5 6 7 8 8 9 10 11 12 13 13 13 13 12 9 4 1 2 2 4 7 7 8 8 8 7 6 6 6 6 5 5 4 4 5 4 4 4 3
Wind_Direction
45 275 285 281 257 234 250 276 299 356 352 289 147 165 187 197 217 244 278 319 357 342 345 352 7 4 40 52 26 15 25 27 11 13 23 15 23 20 23 26 29 23 28 30
254 215 248 265 255 242 243 256 270 285 279 148 133 161 188 200 213 234 265 332 355 346 351 346 353 36 66 66 45 17 42 40 20 17 19 15 24 21 24 37 36 29 22 24
297 161 252 261 240 222 224 229 245 262 262 134 167 191 201 205 210 240 266 334 346 346 336 325 351 39 69 69 63 30 51 47 33 24 19 15 18 22 22 32 43 39 19 15
288 265 275 87 60 102 224 236 228 242 183 156 188 170 181 209 214 241 259 321 358 343 328 339 16 17 89 120 99 64 56 39 36 36 27 19 15 24 28 21 29 42 22 12
289 310 291 142 136 151 228 261 228 213 207 180 185 187 204 198 197 211 222 355 347 336 323 8 19 352 341 97 87 68 60 42 33 33 34 24 18 17 27 16 10 26 24 15
293 294 319 98 111 119 256 267 213 189 191 180 177 223 224 173 169 181 177 185 357 318 326 24 2 328 320 77 78 66 54 48 37 36 45 32 19 11 13 10 357 3 23 27
263 277 312 111 122 147 255 26 50 176 182 181 189 214 114 138 154 163 162 178 275 294 335 42 347 317 336 64 75 78 59 46 35 19 54 66 19 359 6 357 342 347 9 37
224 250 190 134 156 209 283 39 271 206 187 184 185 169 135 148 153 164 173 186 224 276 309 118 324 323 16 69 80 97 95 61 47 41 22 35 25 354 351 348 349 359 8 25
298 348 123 187 211 238 290 299 283 184 187 183 184 175 161 165 167 181 194 191 194 229 279 264 130 36 13 79 107 142 159 157 183 151 127 41 357 6 10 7 7 5 8 10
287 283 256 212 214 236 241 254 282 208 186 188 190 185 173 175 179 189 205 202 182 212 242 231 133 144 184 107 189 196 175 180 196 161 114 112 59 31 35 23 12 4 7 5
260 270 267 232 204 221 230 229 245 233 203 195 192 193 185 186 186 189 200 192 179 222 249 279 216 191 170 165 239 222 187 198 189 148 121 102 108 66 58 83 74 26 1 355
246 314 344 359 94 205 228 227 227 224 217 201 195 200 196 194 189 187 196 196 193 207 218 234 225 190 150 154 231 252 218 186 175 170 151 152 149 136 52 118 156 125 36 2
276 313 322 321 321 285 249 238 228 221 218 209 202 202 203 198 190 188 197 205 204 206 216 235 222 206 179 170 222 257 250 182 168 160 153 205 206 172 178 205 237 257 261 293
337 322 301 297 291 270 252 245 235 227 221 215 206 203 206 206 201 198 202 205 203 203 208 221 227 228 195 178 206 244 246 151 149 173 197 216 213 231 192 174 189 211 227 242
345 330 315 314 315 309 284 257 244 234 224 219 210 205 206 209 209 206 203 203 198 198 206 215 217 217 194 179 215 244 240 182 178 209 202 203 195 213 230 219 202 171 156 206
345 350 352 339 320 309 298 270 252 245 234 225 218 211 209 210 211 208 204 199 199 200 204 212 216 207 188 179 205 240 247 163 171 207 231 216 203 209 214 214 216 174 147 156
1 355 347 339 330 321 309 292 271 258 247 234 225 216 211 208 209 209 207 205 203 198 196 205 211 202 189 178 196 216 220 196 191 211 244 243 220 215 208 193 198 174 138 139
1 349 341 333 327 322 315 307 293 274 261 249 230 217 213 212 213 210 207 207 206 201 202 203 199 194 191 184 196 221 235 207 184 200 221 234 230 226 216 198 198 182 155 161
4 356 349 342 334 325 317 310 303 293 278 259 242 226 218 217 214 209 205 207 209 208 203 199 201 196 190 189 190 199 241 257 217 207 210 208 206 230 240 216 209 208 179 165
1 357 352 347 342 335 325 317 307 300 291 274 254 238 224 217 211 208 209 214 211 201 191 191 193 195 198 191 185 194 214 236 242 228 218 210 202 210 223 218 208 209 203 184
355 354 353 350 346 342 337 329 321 311 302 291 270 251 236 220 210 209 211 219 211 193 190 194 193 184 189 184 181 195 209 223 226 224 226 225 223 222 223 219 207 200 201 198
348 349 349 348 346 345 344 341 339 332 324 313 296 276 256 235 219 217 216 209 196 189 186 186 188 181 182 180 181 194 204 219 221 215 215 223 229 234 235 230 219 206 199 196
339 340 342 343 342 341 344 347 345 341 337 331 323 309 285 262 235 223 226 206 189 189 189 187 187 185 182 182 185 192 203 211 214 211 210 214 219 226 236 242 231 215 203 198
332 334 334 337 338 342 346 347 346 346 343 342 340 335 325 307 283 252 231 208 200 191 192 193 188 186 183 190 194 197 203 205 206 207 211 212 212 216 221 226 230 224 217 213
322 325 329 333 334 338 341 342 345 349 353 352 345 342 340 333 326 315 289 236 199 187 191 192 186 185 187 195 197 201 203 202 199 197 202 209 211 213 218 220 220 219 219 220
309 309 314 318 325 331 335 338 341 345 350 351 343 342 343 343 342 340 332 320 217 188 192 184 183 189 196 200 201 203 202 199 197 197 198 197 203 206 212 218 224 219 218 222
298 298 298 303 312 325 328 330 333 338 348 350 341 345 348 352 352 347 341 338 338 279 231 221 189 193 203 206 207 206 201 195 188 185 191 198 204 210 215 215 210 208 209 217